カタログに戻る

FENGYUN 1C DEB

LostSSO
NORAD 31310·DEBRIS·🇨🇳 China

打ち上げ May 10, 1999 から Taiyuan Satellite Launch Center

Loading…

次のパス (今後24時間)

TLE

古いSource: Space-Track

元期: May 10, 2024, 11:57 UTC

1 31310U 99025BPN 24131.49825054  .00016027  00000-0  70863-2 0  9993
2 31310  98.8938  31.4551 0090783 292.8772 243.3550 14.21077066872764

AllMySatでFENGYUN 1C DEBをリアルタイム追跡

Download on the App Store